Regional Weather Roundup
Issued by NWS San Angelo, TX

Home | Current Version | Previous Version | Text Only | Print | Product List | Glossary On
Versions: 1 2 3 4 5 6 7 8 9 10 11 12 13 14 15 16 17 18 19 20 21 22 23 24 25 26 27 28 29 30 31 32 33 34 35 36 37 38 39 40 41 42 43 44 45 46 47 48 49 50
000
ASUS44 KSJT 170210
RWRSJT
WEST CENTRAL TEXAS REGIONAL WEATHER ROUNDUP
NATIONAL WEATHER SERVICE SAN ANGELO TX
900 PM CDT MON OCT 16 2017

NOTE: "FAIR" INDICATES FEW OR NO CLOUDS BELOW 12,000 FEET WITH NO
SIGNIFICANT WEATHER AND/OR OBSTRUCTIONS TO VISIBILITY.

TXZ049-054-064>066-071>073-076>078-098-099-113-114-127-128-139-140-
154-155-168>170-170300
...LOCATIONS ACROSS WEST CENTRAL TEXAS...

CITY           SKY/WX    TMP DP  RH WIND       PRES   REMARKS
SAN ANGELO     CLEAR     57  38  48 SE5       30.30S
ABILENE        CLEAR     59  35  40 SE7       30.31S
DYESS AFB      CLEAR     50  44  79 CALM      30.30S
JUNCTION       CLEAR     58  39  49 CALM      30.31R
SWEETWATER     CLEAR     59  32  35 SE5       30.34S
BROWNWOOD      CLEAR     50  37  62 CALM      30.30S
COLEMAN        CLEAR     57  38  49 CALM      30.31R
SONORA         CLEAR     52  34  50 CALM      30.36S
OZONA          FAIR      50  32  50 CALM      30.35R
BRADY          NOT AVBL
$$

TEXAS PANHANDLE/OKLAHOMA PANHANDLE

CITY           SKY/WX    TMP DP  RH WIND       PRES   REMARKS
AMARILLO       CLEAR     58  34  40 S14       30.27R
BORGER         CLEAR     63  34  33 S16       30.24R
CANADIAN       CLEAR     60  36  40 S14G20    30.24R
DALHART        CLEAR     52  37  56 S9        30.25R
DUMAS          CLEAR     50  37  61 S8        30.24S
GUYMON         NOT AVBL
HEREFORD       CLEAR     53  40  61 SW8       30.29R
PAMPA          CLEAR     56  36  46 S13       30.27R
PERRYTON       CLEAR     56  38  49 S10       30.21S
$$

SOUTHERN PANHANDLE/SOUTH PLAINS/ROLLING PLAINS

CITY           SKY/WX    TMP DP  RH WIND       PRES   REMARKS
LUBBOCK        CLEAR     57  31  37 S10       30.30R
SNYDER         CLEAR     60  33  35 S5        30.32F
CHILDRESS      CLEAR     56  37  49 SE9       30.28S
SEMINOLE       CLEAR     51  35  55 S3        30.34R
$$

PERMIAN BASIN

CITY           SKY/WX    TMP DP  RH WIND       PRES   REMARKS
MIDLAND        CLEAR     59  36  42 S6        30.33R
ODESSA         NOT AVBL
WINK           CLEAR     56  41  57 S6        30.31R
$$

FAR WEST/SOUTHWEST MOUNTAINS/TRANS PECOS

CITY           SKY/WX    TMP DP  RH WIND       PRES   REMARKS
ALPINE         CLEAR     55  33  44 CALM      30.43S
DRYDEN           N/A     61  35  37 SE3       30.30R
EL PASO        CLEAR     73  41  31 N3        30.28S
FORT STOCKTON  CLEAR     58  40  51 SE6       30.33S
GUADALUPE PASS CLEAR     57  32  38 NE13      30.40S
MARFA          CLEAR     55  37  50 CALM      30.40R
PECOS          CLEAR     56  43  61 CALM      30.32R
$$

DALLAS/FORT WORTH METROPLEX

CITY           SKY/WX    TMP DP  RH WIND       PRES   REMARKS
DFW AIRPORT    CLEAR     62  41  46 N7        30.27R
FTW MEACHAM    CLEAR     65  41  41 NE6       30.28R
DAL-EXECUTIVE  CLEAR     60  43  53 NE5       30.28R
GRAND PRAIRIE  CLEAR     64  37  36 CALM      30.30R
ADDISON        NOT AVBL
MESQUITE       CLEAR     57  41  55 CALM      30.29R
LANCASTER      CLEAR     57  41  54 CALM      30.29S
$$

NORTH CENTRAL TEXAS

CITY           SKY/WX    TMP DP  RH WIND       PRES   REMARKS
SHRMAN/DENISON CLEAR     55  44  65 CALM      30.30S
GAINESVILLE    CLEAR     58  40  52 CALM      30.31F
BRIDGEPORT     CLEAR     50  44  81 CALM      30.31S
DENTON         CLEAR     57  42  57 NE6       30.29R
WAXAHACHIE     CLEAR     55  43  63 CALM      30.29S
GRANBURY       CLEAR     55  40  57 CALM      30.30S
$$

WESTERN NORTH TEXAS

CITY           SKY/WX    TMP DP  RH WIND       PRES   REMARKS
WICHITA FALLS  CLEAR     60  39  45 SW3       30.28S
VERNON         CLEAR     58  35  42 S6        30.30S
BRECKENRIDGE   CLEAR     58  39  49 CALM      30.30S
COMANCHE       CLEAR     62  37  39 CALM      30.30S
$$

CENTRAL AND SOUTH CENTRAL TEXAS

CITY           SKY/WX    TMP DP  RH WIND       PRES   REMARKS
AUSTIN/BERGSTM CLEAR     58  43  57 N3        30.26R
WACO           CLEAR     56  40  55 N6        30.28R
HILLSBORO      CLEAR     60  40  48 NE6       30.28S
TEMPLE         CLEAR     59  38  45 N3        30.28R
KILLEEN-GRAY   CLEAR     62  38  40 W7        30.28R
FORT HOOD      CLEAR     61  39  44 N5        30.25R
GEORGETOWN     CLEAR     60  41  49 N6        30.29R
LAGO VISTA     FAIR      62  39  41 N7        30.29R
SAN MARCOS     CLEAR     58  43  57 NW7       30.27R
NEW BRAUNFELS  CLEAR     56  43  61 NE3       30.26R
RANDOLPH AFB   CLEAR     62  43  50 N5        30.27R
SAN ANTONIO    CLEAR     62  41  46 NW3       30.28R
STINSON        CLEAR     63  45  51 CALM      30.25R
PLEASANTON     NOT AVBL
LA GRANGE      CLEAR     61  48  64 CALM      30.24R
GIDDINGS       CLEAR     58  44  59 N3        30.27R
$$

EAST TEXAS

CITY           SKY/WX    TMP DP  RH WIND       PRES   REMARKS
PARIS          CLEAR     56  45  66 CALM      30.29R
CLARKSVILLE    NOT AVBL
TYLER          CLEAR     60  39  45 NE3       30.28R
LONGVIEW       CLEAR     62  43  49 NE5       30.27R
PALESTINE      CLEAR     60  45  59 CALM      30.28R
NACOGDOCHES    CLEAR     59  41  51 NE3       30.27R
$$

TEXAS HILL COUNTRY AND EDWARDS PLATEAU

CITY           SKY/WX    TMP DP  RH WIND       PRES   REMARKS
LLANO          CLEAR     54  39  58 CALM      30.32S
HORSESHOE BAY  FAIR      52  43  72 CALM      30.29R
KERRVILLE      CLEAR     53  42  68 CALM      30.30R
FREDERICKSBRG  CLEAR     53  37  55 CALM      30.31R
ROCKSPRINGS    NOT AVBL
HONDO          CLEAR     58  40  51 NE7       30.28R
UVALDE         CLEAR     57  47  70 CALM      30.28R
DEL RIO        CLEAR     61  42  49 W5        30.27R
$$

SOUTHEAST TEXAS

CITY           SKY/WX    TMP DP  RH WIND       PRES   REMARKS
COLLEGE STN    CLEAR     63  43  48 N6        30.26R
CALDWELL       CLEAR     58  46  63 N5        30.27R
CROCKETT         N/A     54  45  71 CALM      30.30R
BRENHAM        CLEAR     61  46  58 CALM      30.26R
HUNTSVILLE     CLEAR     59  44  57 CALM      30.25R
CONROE         CLEAR     55  50  83 CALM      30.24R
HOUSTON BUSH   PTCLDY    64  50  60 N3        30.23R
HOUSTON HOBBY  CLEAR     70  47  43 N9        30.22R
PERLAND        CLEAR     68  47  46 NE5       30.24R
WHARTON        CLEAR     60  45  56 N6        30.24R
$$

THE UPPER TEXAS COAST

CITY           SKY/WX    TMP DP  RH WIND       PRES   REMARKS
ORANGE         CLEAR     62  52  69 N5        30.24R
PORT ARTHUR    LGT RAIN  65  48  54 N9        30.22R
GALVESTON      CLEAR     73  52  47 N16       30.21R
ANGLETON       CLEAR     62  48  60 N8        30.22R
BAY CITY       CLEAR     62  49  62 CALM      30.22R
$$

TEXAS COASTAL BEND, RIO GRANDE PLAINS DEEP SOUTH TEXAS

CITY           SKY/WX    TMP DP  RH WIND       PRES   REMARKS
VICTORIA       CLEAR     58  51  78 N6        30.24R
BEEVILLE       FAIR      61  42  48 N5        30.24R
ROCKPORT       CLEAR     70  50  49 N9        30.23R
PORT ARANSAS   NOT AVBL
PORT LAVACA    CLEAR     63  47  55 N6        30.23R
CORPUS CHRISTI CLEAR     66  50  56 N9        30.23R
KINGSVILLE NAS CLEAR     66  47  50 N7        30.23R
COTULLA        CLEAR     63  42  46 NW3       30.26R
LAREDO         CLEAR     67  45  45 NW7       30.27R
BROWNSVILLE    CLEAR     71  56  58 N7        30.20R
PORT ISABEL    CLEAR     68  55  63 N7        30.20R
HEBBRONVILLE   CLEAR     62  42  48 N6        30.26R
MCALLEN        CLEAR     74  49  41 N8        30.23R
WESLACO        CLEAR     70  48  45 N8        30.22R
FALFURRIAS     CLEAR     67  44  42 CALM      30.23R
EDINBURG       CLEAR     66  50  55 N6        30.23R
$$




USA.gov is the U.S. government's official web portal to all federal, state and local government web resources and services.